TimeEDT,TemperatureF,Dew PointF,Humidity,Sea Level PressureIn,VisibilityMPH,Wind Direction,Wind SpeedMPH,Gust SpeedMPH,PrecipitationIn,Events,Conditions,WindDirDegrees,DateUTC
12:01 AM,53.6,51.8,94,30.07,1.8,Calm,Calm,-,0.00,Rain,Light Rain,0,2012-10-24 04:01:00
12:38 AM,53.6,51.8,94,30.08,1.8,Calm,Calm,-,0.03,Rain,Light Rain,0,2012-10-24 04:38:00
12:53 AM,54.0,52.0,93,30.08,1.5,Calm,Calm,-,0.04,Rain,Light Rain,0,2012-10-24 04:53:00
1:22 AM,53.6,51.8,94,30.08,2.5,Calm,Calm,-,0.01,Rain,Light Rain,0,2012-10-24 05:22:00
1:30 AM,53.6,51.8,94,30.08,2.0,Calm,Calm,-,0.01,Rain,Light Rain,0,2012-10-24 05:30:00
1:38 AM,53.6,51.8,94,30.08,2.5,Calm,Calm,-,0.01,Rain,Light Rain,0,2012-10-24 05:38:00
1:46 AM,53.6,51.8,94,30.08,3.0,Calm,Calm,-,0.01,Rain,Light Rain,0,2012-10-24 05:46:00
1:53 AM,54.0,52.0,93,30.08,2.0,Calm,Calm,-,0.01,Rain,Light Rain,0,2012-10-24 05:53:00
2:01 AM,53.6,51.8,94,30.08,1.5,Calm,Calm,-,N/A,,Overcast,0,2012-10-24 06:01:00
2:13 AM,53.6,51.8,94,30.08,2.5,Calm,Calm,-,0.00,Rain,Light Rain,0,2012-10-24 06:13:00
2:32 AM,53.6,51.8,94,30.08,1.8,Calm,Calm,-,0.01,Rain,Light Rain,0,2012-10-24 06:32:00
2:41 AM,53.6,51.8,94,30.08,2.5,Calm,Calm,-,0.01,Rain,Light Rain,0,2012-10-24 06:41:00
2:53 AM,54.0,52.0,93,30.09,2.5,Calm,Calm,-,0.01,Rain,Light Rain,0,2012-10-24 06:53:00
3:00 AM,53.6,51.8,94,30.08,4.0,Calm,Calm,-,0.00,,Overcast,0,2012-10-24 07:00:00
3:53 AM,54.0,52.0,93,30.08,4.0,Calm,Calm,-,0.00,,Overcast,0,2012-10-24 07:53:00
4:53 AM,54.0,52.0,93,30.07,4.0,Calm,Calm,-,0.01,,Overcast,0,2012-10-24 08:53:00
5:04 AM,53.6,51.8,94,30.07,5.0,Calm,Calm,-,N/A,,Overcast,0,2012-10-24 09:04:00
5:51 AM,53.6,51.8,94,30.08,5.0,Calm,Calm,-,0.00,,Overcast,0,2012-10-24 09:51:00
5:53 AM,54.0,52.0,93,30.09,5.0,Calm,Calm,-,0.00,,Overcast,0,2012-10-24 09:53:00
6:12 AM,53.6,51.8,94,30.08,4.0,Calm,Calm,-,N/A,,Overcast,0,2012-10-24 10:12:00
6:53 AM,54.0,52.0,93,30.09,6.0,Calm,Calm,-,N/A,,Overcast,0,2012-10-24 10:53:00
7:53 AM,54.0,53.1,97,30.11,4.0,Calm,Calm,-,0.00,Rain,Light Rain,0,2012-10-24 11:53:00
8:12 AM,55.4,53.6,94,30.11,4.0,Calm,Calm,-,0.00,Rain,Light Rain,0,2012-10-24 12:12:00
8:45 AM,53.6,53.6,100,30.11,2.0,WSW,3.5,-,0.02,Rain,Rain,240,2012-10-24 12:45:00
8:53 AM,55.0,53.1,93,30.12,1.8,Calm,Calm,-,0.04,Rain,Light Rain,0,2012-10-24 12:53:00
9:01 AM,55.4,53.6,94,30.11,2.5,Calm,Calm,-,0.00,Rain,Light Rain,0,2012-10-24 13:01:00
9:34 AM,55.4,53.6,94,30.11,2.0,Calm,Calm,-,0.00,Rain,Light Rain,0,2012-10-24 13:34:00
9:53 AM,55.0,53.1,93,30.12,2.0,Calm,Calm,-,0.00,,Overcast,0,2012-10-24 13:53:00
10:53 AM,55.9,54.0,93,30.11,7.0,Calm,Calm,-,0.00,Rain,Light Rain,0,2012-10-24 14:53:00
11:07 AM,55.4,53.6,94,30.10,7.0,Calm,Calm,-,0.00,,Overcast,0,2012-10-24 15:07:00
12:53 PM,61.0,57.9,90,30.08,8.0,Calm,Calm,-,N/A,,Mostly Cloudy,0,2012-10-24 16:53:00
1:53 PM,64.0,59.0,84,30.06,10.0,Calm,Calm,-,0.00,,Mostly Cloudy,0,2012-10-24 17:53:00
2:53 PM,66.9,59.0,76,30.06,10.0,Calm,Calm,-,N/A,,Overcast,0,2012-10-24 18:53:00
3:53 PM,64.0,60.1,87,30.07,9.0,ENE,5.8,-,N/A,,Overcast,70,2012-10-24 19:53:00
4:53 PM,63.0,60.1,90,30.07,8.0,East,4.6,-,N/A,,Overcast,80,2012-10-24 20:53:00
5:22 PM,62.6,59.0,88,30.09,8.0,East,4.6,-,N/A,,Overcast,80,2012-10-24 21:22:00
5:53 PM,62.1,59.0,90,30.09,5.0,ESE,3.5,-,0.00,,Overcast,110,2012-10-24 21:53:00
6:53 PM,61.0,59.0,93,30.10,5.0,ENE,4.6,-,N/A,,Overcast,60,2012-10-24 22:53:00
7:53 PM,59.0,57.0,93,30.12,4.0,East,4.6,-,N/A,,Overcast,90,2012-10-24 23:53:00
8:53 PM,59.0,57.0,93,30.13,4.0,East,3.5,-,N/A,,Overcast,90,2012-10-25 00:53:00
9:53 PM,57.9,55.9,93,30.14,4.0,Calm,Calm,-,N/A,,Overcast,0,2012-10-25 01:53:00
10:41 PM,57.2,55.4,94,30.13,2.5,Calm,Calm,-,N/A,,Overcast,0,2012-10-25 02:41:00
10:53 PM,57.9,55.9,93,30.13,2.0,Calm,Calm,-,N/A,,Overcast,0,2012-10-25 02:53:00
11:15 PM,57.2,55.4,94,30.13,1.8,Calm,Calm,-,N/A,,Overcast,0,2012-10-25 03:15:00
11:22 PM,57.2,55.4,94,30.13,1.0,Calm,Calm,-,N/A,,Overcast,0,2012-10-25 03:22:00
11:38 PM,57.2,55.4,94,30.13,3.0,Calm,Calm,-,N/A,,Overcast,0,2012-10-25 03:38:00